ニート彗星

163P/NEAT (2019)

English version
Home page
Updated on November 15, 2021

---------------------------------------------------------------------

・ プロフィール

・ 軌道要素

Epoch 2019 Aug. 25.0 TT = JDT 2458720.5                                         
T 2019 Aug. 5.24763 TT                                  Rudenko                 
q   2.0666483            (2000.0)            P               Q                  
n   0.13458049     Peri.  349.70070     -0.03555266     -0.97594434             
a   3.7712151      Node   102.09124     +0.93183649     -0.11015172             
e   0.4519941      Incl.   12.70796     +0.36113262     +0.18814687             
P   7.32                                                                        
From 384 observations 1990 Oct. 24-2020 Mar. 17, mean residual 1".1.            

・ 光度変化

        m1 = 15.0 + 5 logΔ + 10.0 log r

---------------------------------------------------------------------

軌道要素はM.P.E.C. 2021-S45に掲載されたものです。
光度グラフはComet for Windowsで作成したものです。

---------------------------------------------------------------------

Copyright(C) Seiichi Yoshida (comet@aerith.net). All rights reserved.